Total_Precipitation_Accumulation
0.62 0.63 0.62 0.64 0.63 0.63 0.64 0.62 0.59 0.56 0.58 0.54 0.50 0.45 0.41 0.39 0.41 0.46 0.46 0.43 0.43 0.47 0.50 0.54 0.59 0.66 0.72 0.73 0.76 0.76 0.79 0.89 0.85 0.72 0.82 0.91 0.83 0.65 0.55 0.55 0.56 0.57 0.54
0.43 0.46 0.50 0.56 0.58 0.55 0.54 0.58 0.62 0.58 0.55 0.55 0.52 0.47 0.39 0.36 0.42 0.47 0.49 0.45 0.45 0.48 0.55 0.64 0.65 0.65 0.72 0.78 0.87 0.88 0.89 1.02 1.01 0.88 0.93 1.02 0.92 0.79 0.65 0.57 0.47 0.44 0.46
0.34 0.36 0.43 0.54 0.55 0.51 0.48 0.54 0.60 0.61 0.58 0.56 0.56 0.52 0.46 0.42 0.42 0.44 0.48 0.51 0.54 0.56 0.61 0.69 0.73 0.78 0.80 0.82 0.89 0.91 0.96 1.10 1.15 1.07 1.04 1.14 1.15 0.94 0.75 0.59 0.48 0.49 0.41
0.47 0.49 0.54 0.63 0.65 0.61 0.56 0.56 0.59 0.63 0.63 0.64 0.66 0.67 0.62 0.56 0.50 0.48 0.50 0.52 0.57 0.62 0.69 0.69 0.71 0.80 0.87 0.93 0.99 1.09 1.14 1.21 1.29 1.26 1.25 1.36 1.36 1.23 1.00 0.73 0.64 0.61 0.53
0.67 0.76 0.86 0.95 0.97 0.86 0.79 0.78 0.81 0.82 0.83 0.91 0.92 0.87 0.80 0.71 0.59 0.59 0.58 0.53 0.59 0.59 0.63 0.68 0.68 0.70 0.77 0.89 0.94 1.07 1.22 1.38 1.54 1.59 1.58 1.72 1.68 1.50 1.23 0.91 0.78 0.69 0.61
0.60 0.70 0.80 0.96 1.02 0.95 0.90 0.94 0.98 0.99 1.07 1.13 1.09 1.04 1.00 0.78 0.73 0.67 0.63 0.62 0.63 0.64 0.67 0.71 0.68 0.65 0.64 0.69 0.76 0.88 1.02 1.19 1.40 1.60 1.72 1.81 1.85 1.70 1.49 1.23 0.90 0.69 0.61
0.67 0.80 0.86 0.95 1.03 1.05 1.05 1.11 1.14 1.13 1.11 1.13 1.11 1.06 0.99 0.92 0.78 0.63 0.58 0.59 0.65 0.70 0.72 0.74 0.64 0.54 0.59 0.59 0.62 0.66 0.73 0.83 0.97 1.19 1.39 1.48 1.66 1.78 1.64 1.34 1.06 0.85 0.68
0.69 0.78 0.86 0.97 1.05 1.16 1.28 1.33 1.37 1.41 1.38 1.30 1.19 1.14 1.11 1.01 0.85 0.70 0.66 0.62 0.65 0.66 0.68 0.70 0.67 0.58 0.56 0.61 0.64 0.61 0.59 0.60 0.68 0.77 0.92 1.13 1.34 1.55 1.61 1.50 1.39 1.13 0.86
0.81 0.88 0.97 1.05 1.16 1.24 1.30 1.37 1.45 1.50 1.45 1.39 1.33 1.27 1.24 1.16 1.01 0.79 0.70 0.67 0.70 0.67 0.65 0.65 0.66 0.58 0.55 0.49 0.55 0.56 0.54 0.53 0.53 0.59 0.68 0.86 1.10 1.27 1.45 1.44 1.33 1.20 0.96
0.95 0.96 1.01 1.17 1.25 1.27 1.27 1.31 1.33 1.35 1.31 1.26 1.24 1.26 1.25 1.23 1.14 0.85 0.70 0.65 0.69 0.69 0.74 0.73 0.70 0.59 0.55 0.45 0.48 0.52 0.50 0.48 0.52 0.51 0.55 0.63 0.75 0.98 1.20 1.23 1.15 1.08 0.95
0.95 0.97 1.04 1.14 1.27 1.30 1.33 1.31 1.25 1.21 1.20 1.23 1.22 1.22 1.23 1.20 1.08 0.77 0.67 0.70 0.77 0.80 0.78 0.75 0.75 0.65 0.50 0.40 0.39 0.43 0.42 0.44 0.52 0.55 0.55 0.61 0.71 0.83 1.02 1.11 1.10 0.98 0.86
0.85 0.87 0.92 0.95 0.97 1.05 1.19 1.23 1.22 1.20 1.19 1.22 1.26 1.26 1.23 1.20 1.08 0.82 0.61 0.59 0.68 0.76 0.78 0.78 0.77 0.66 0.52 0.44 0.36 0.33 0.33 0.34 0.44 0.50 0.52 0.53 0.59 0.68 0.83 1.06 1.18 1.10 0.92
0.85 0.88 0.87 0.87 0.93 1.01 1.07 1.07 1.04 1.01 0.96 0.96 1.10 1.20 1.21 1.21 1.12 0.86 0.64 0.54 0.58 0.66 0.76 0.88 0.86 0.72 0.64 0.57 0.48 0.39 0.36 0.34 0.41 0.48 0.45 0.45 0.49 0.58 0.75 1.05 1.30 1.43 1.30
0.88 0.90 0.94 0.97 0.93 0.93 0.99 0.97 0.95 0.93 0.89 0.89 1.04 1.16 1.22 1.22 1.16 1.00 0.82 0.69 0.66 0.68 0.73 0.85 0.89 0.87 0.80 0.72 0.61 0.47 0.36 0.36 0.37 0.43 0.47 0.50 0.59 0.68 0.80 0.88 1.10 1.30 1.36
0.81 0.80 0.88 0.94 0.89 0.83 0.89 0.96 0.90 0.90 0.92 0.92 1.05 1.24 1.27 1.18 1.04 0.87 0.75 0.75 0.73 0.77 0.81 0.95 1.06 1.08 1.07 0.98 0.83 0.68 0.57 0.52 0.49 0.50 0.59 0.64 0.69 0.72 0.75 0.79 0.94 1.09 1.10
0.85 0.80 0.76 0.76 0.78 0.80 0.85 0.89 0.87 0.77 0.75 0.70 0.74 0.86 0.95 0.87 0.74 0.63 0.56 0.54 0.51 0.51 0.59 0.83 1.08 1.16 1.19 1.18 1.08 0.91 0.79 0.71 0.67 0.67 0.70 0.72 0.73 0.77 0.80 0.85 0.93 1.03 1.02
0.86 0.82 0.75 0.66 0.62 0.63 0.67 0.73 0.78 0.74 0.56 0.49 0.47 0.47 0.50 0.50 0.50 0.53 0.51 0.42 0.35 0.32 0.40 0.61 0.89 1.10 1.19 1.23 1.17 1.01 0.85 0.80 0.84 0.81 0.78 0.78 0.77 0.78 0.85 0.90 0.93 0.99 1.02
0.65 0.67 0.63 0.58 0.55 0.54 0.55 0.57 0.59 0.66 0.68 0.59 0.44 0.35 0.32 0.31 0.35 0.50 0.56 0.40 0.31 0.27 0.33 0.48 0.72 0.99 1.09 1.15 1.14 1.08 0.98 0.95 0.95 0.91 0.87 0.85 0.83 0.84 0.82 0.85 0.89 0.92 0.95
0.63 0.61 0.53 0.51 0.52 0.54 0.57 0.56 0.55 0.59 0.68 0.75 0.69 0.46 0.34 0.30 0.31 0.50 0.62 0.45 0.37 0.40 0.41 0.46 0.61 0.83 0.98 1.07 1.09 1.07 1.03 1.02 1.01 1.01 0.98 0.95 0.92 0.94 0.89 0.84 0.88 0.95 1.00
0.58 0.61 0.54 0.50 0.50 0.53 0.55 0.52 0.54 0.63 0.72 0.83 0.84 0.58 0.38 0.33 0.38 0.62 0.75 0.60 0.52 0.52 0.50 0.52 0.60 0.75 0.91 1.03 1.06 1.04 1.07 1.06 1.08 1.07 1.04 1.01 0.96 0.96 0.97 0.96 0.97 1.01 0.96
0.50 0.49 0.47 0.43 0.47 0.50 0.51 0.52 0.54 0.62 0.73 0.81 0.75 0.50 0.36 0.35 0.45 0.67 0.85 0.75 0.66 0.65 0.62 0.59 0.63 0.75 0.85 0.96 0.99 0.98 1.01 1.08 1.08 1.07 1.05 1.05 1.02 1.00 1.02 1.04 1.03 1.06 1.05
0.45 0.43 0.40 0.39 0.40 0.41 0.41 0.47 0.54 0.65 0.75 0.80 0.67 0.47 0.39 0.44 0.55 0.71 0.77 0.74 0.71 0.68 0.65 0.65 0.71 0.80 0.86 0.92 0.95 0.99 1.03 1.07 1.07 1.08 1.12 1.12 1.12 1.09 1.11 1.10 1.07 1.09 1.12
0.33 0.33 0.35 0.36 0.38 0.35 0.38 0.46 0.49 0.57 0.68 0.74 0.64 0.57 0.57 0.65 0.67 0.72 0.77 0.77 0.74 0.71 0.67 0.72 0.76 0.78 0.81 0.84 0.83 0.89 0.96 0.97 0.97 1.00 1.08 1.12 1.14 1.12 1.10 1.06 1.03 1.05 1.09
0.25 0.25 0.25 0.27 0.29 0.31 0.36 0.40 0.43 0.48 0.58 0.65 0.62 0.66 0.70 0.73 0.72 0.73 0.77 0.76 0.77 0.78 0.77 0.74 0.74 0.73 0.74 0.76 0.77 0.78 0.79 0.82 0.84 0.88 0.93 1.01 1.05 1.09 1.08 1.03 1.03 1.04 1.06
0.26 0.26 0.25 0.27 0.27 0.29 0.33 0.38 0.44 0.50 0.55 0.60 0.65 0.69 0.74 0.73 0.74 0.77 0.76 0.75 0.76 0.76 0.72 0.70 0.72 0.73 0.74 0.70 0.65 0.62 0.63 0.62 0.66 0.74 0.80 0.88 0.94 0.99 1.00 0.98 1.01 1.05 1.06
0.24 0.29 0.31 0.33 0.34 0.35 0.37 0.42 0.47 0.50 0.53 0.57 0.63 0.70 0.74 0.74 0.75 0.76 0.73 0.70 0.72 0.70 0.66 0.64 0.63 0.66 0.66 0.62 0.56 0.53 0.50 0.47 0.50 0.58 0.62 0.72 0.83 0.89 0.93 0.96 0.95 0.99 1.00